sampling_time,wmo_synop_id,msc_id,stn_nam,stn_elev,lat,long,stn_typ,date_tm,rpt_typ,result_time,crnt_buoy_lat,crnt_buoy_lat_qa_summary,crnt_buoy_long,crnt_buoy_long_qa_summary,avg_air_temp_pst10mts,avg_air_temp_pst10mts_qa_summary,avg_sea_sfc_temp_pst10mts,avg_sea_sfc_temp_pst10mts_qa_summary,avg_batry_volt_pst10mts,avg_batry_volt_pst10mts_qa_summary,avg_solr_panl_crnt_pst10mts,avg_solr_panl_crnt_pst10mts_qa_summary,avg_wtr_lvl_snsr_volt_pst10mts,avg_wtr_lvl_snsr_volt_pst10mts_qa_summary,avg_wave_hgt_pst20mts,avg_wave_hgt_pst20mts_qa_summary,pk_wave_hgt_pst20mts,pk_wave_hgt_pst20mts_qa_summary,sig_wave_pd_pst20mts,sig_wave_pd_pst20mts_qa_summary,sig_wave_hgt_pst20mts,sig_wave_hgt_pst20mts_qa_summary,avg_max_wave_hgt_pst20mts,avg_max_wave_hgt_pst20mts_qa_summary,avg_max_wave_pd_pst20mts,avg_max_wave_pd_pst20mts_qa_summary,avg_wave_pd_pst20mts,avg_wave_pd_pst20mts_qa_summary,pk_wave_pd_pst20mts,pk_wave_pd_pst20mts_qa_summary,avg_stn_pres_pst10mts,avg_stn_pres_pst10mts_qa_summary,avg_wnd_spd_pst10mts,avg_wnd_spd_pst10mts_qa_summary,avg_wnd_dir_pst10mts,avg_wnd_dir_pst10mts_qa_summary,max_avg_wnd_spd_pst10mts,max_avg_wnd_spd_pst10mts_qa_summary,wnd_snsr_vert_disp,wnd_snsr_vert_disp_qa_summary,pres_tend_char_pst3hrs,pres_tend_char_pst3hrs_data_flag,pres_tend_amt_pst3hrs,pres_tend_amt_pst3hrs_data_flag,avg_mslp_pst10mts,avg_mslp_pst10mts_data_flag,avg_stn_pres_pst10mts_1,avg_stn_pres_pst10mts_1_qa_summary,avg_stn_pres_pst10mts_2,avg_stn_pres_pst10mts_2_qa_summary,avg_wnd_spd_pst10mts_1,avg_wnd_spd_pst10mts_1_qa_summary,avg_wnd_spd_pst10mts_2,avg_wnd_spd_pst10mts_2_qa_summary,avg_wnd_dir_pst10mts_1,avg_wnd_dir_pst10mts_1_qa_summary,avg_wnd_dir_pst10mts_2,avg_wnd_dir_pst10mts_2_qa_summary,max_avg_wnd_spd_pst10mts_1,max_avg_wnd_spd_pst10mts_1_qa_summary,max_avg_wnd_spd_pst10mts_2,max_avg_wnd_spd_pst10mts_2_qa_summary
2023-10-25T00:00:00Z,44489,9302001,WEST CHEDABUCTO BAY,0,45.48687,-61.14100000000001,18,2023-10-25T00:00:00.000Z,108,2023-10-25T00:02:40.427Z,45.48702,100,-61.14083,100,9.3,100,12.9,100,12.5,100,0.0,100,3.5,100,0.4,100,1.0,100,3.5,100,0.6,100,0.7,100,3.4,100,3.1,100,3.5,100,1026.6,100,22.3,100,287,100,28.1,100,5,100,1,1,1.1,1,1026.6,1,1026.6,100,1026.6,100,22.3,100,21.6,100,287,100,282,100,28.1,100,27.7,100
2023-10-25T00:10:00Z,44489,9302001,WEST CHEDABUCTO BAY,0,45.48687,-61.14100000000001,18,2023-10-25T00:10:00.000Z,110,2023-10-25T00:12:49.020Z,45.48702,100,-61.14086999999999,100,10.0,100,13.5,100,12.5,100,0.0,100,3.5,100,,-1,,-1,,-1,,-1,,-1,,-1,,-1,,-1,1026.6,100,22.3,100,287,100,26.6,100,5,100,1,1,1.0,1,1026.6,1,1026.6,100,1026.5,100,22.3,100,22.0,100,287,100,282,100,26.6,100,26.3,100
2023-10-25T00:20:00Z,44489,9302001,WEST CHEDABUCTO BAY,0,45.48687,-61.14100000000001,18,2023-10-25T00:20:00.000Z,110,2023-10-25T00:22:50.708Z,45.48702,100,-61.14085,100,9.3,100,12.9,100,12.5,100,0.0,100,3.5,100,,-1,,-1,,-1,,-1,,-1,,-1,,-1,,-1,1026.5,100,23.0,100,286,100,27.4,100,5,100,0,1,0.9,1,1026.5,1,1026.5,100,1026.4,100,23.0,100,22.3,100,286,100,281,100,27.4,100,27.0,100
2023-10-25T00:30:00Z,44489,9302001,WEST CHEDABUCTO BAY,0,45.48687,-61.14100000000001,18,2023-10-25T00:30:00.000Z,110,2023-10-25T00:32:54.647Z,45.48702,100,-61.14085,100,9.2,100,12.9,100,12.5,100,0.0,100,3.5,100,,-1,,-1,,-1,,-1,,-1,,-1,,-1,,-1,1026.5,100,24.1,100,284,100,28.1,100,5,100,0,1,0.8,1,1026.5,1,1026.5,100,1026.4,100,24.1,100,23.4,100,284,100,279,100,28.1,100,27.7,100
2023-10-25T00:40:00Z,44489,9302001,WEST CHEDABUCTO BAY,0,45.48687,-61.14100000000001,18,2023-10-25T00:40:00.000Z,110,2023-10-25T00:42:48.886Z,45.48703,100,-61.14085,100,9.2,100,12.9,100,12.5,100,0.0,100,3.5,100,,-1,,-1,,-1,,-1,,-1,,-1,,-1,,-1,1026.6,100,23.8,100,282,100,27.4,100,5,100,1,1,0.9,1,1026.6,1,1026.6,100,1026.5,100,23.8,100,23.0,100,282,100,277,100,27.4,100,26.3,100
2023-10-25T00:50:00Z,44489,9302001,WEST CHEDABUCTO BAY,0,45.48687,-61.14100000000001,18,2023-10-25T00:50:00.000Z,110,2023-10-25T00:52:47.196Z,45.48703,100,-61.14086999999999,100,9.0,100,12.9,100,12.5,100,0.0,100,3.5,100,,-1,,-1,,-1,,-1,,-1,,-1,,-1,,-1,1026.5,100,21.2,100,286,100,29.5,100,5,100,0,1,0.8,1,1026.5,1,1026.5,100,1026.5,100,21.2,100,20.9,100,286,100,281,100,29.5,100,28.1,100
2023-10-25T01:00:00Z,44489,9302001,WEST CHEDABUCTO BAY,0,45.48687,-61.14100000000001,18,2023-10-25T01:00:00.000Z,108,2023-10-25T01:02:56.400Z,45.48702,100,-61.14086999999999,100,8.8,100,12.9,100,12.5,100,0.0,100,3.5,100,0.3,100,0.8,100,3.7,100,0.4,100,0.5,100,4.0,100,3.1,100,3.1,100,1026.4,100,19.1,100,282,100,22.0,100,5,100,0,1,0.5,1,1026.4,1,1026.4,100,1026.4,100,19.1,100,18.4,100,282,100,277,100,22.0,100,22.0,100
2023-10-25T01:10:00Z,44489,9302001,WEST CHEDABUCTO BAY,0,45.48687,-61.14100000000001,18,2023-10-25T01:10:00.000Z,110,2023-10-25T01:16:00.188Z,45.48703,100,-61.14086999999999,100,9.0,100,12.9,100,12.5,100,0.0,100,3.5,100,,-1,,-1,,-1,,-1,,-1,,-1,,-1,,-1,1026.4,100,19.4,100,284,100,23.4,100,5,100,0,1,0.4,1,1026.4,1,1026.4,100,1026.3,100,19.4,100,19.1,100,284,100,279,100,23.4,100,23.4,100
2023-10-25T01:20:00Z,44489,9302001,WEST CHEDABUCTO BAY,0,45.48687,-61.14100000000001,18,2023-10-25T01:20:00.000Z,110,2023-10-25T01:23:05.131Z,45.48705,100,-61.14086999999999,100,8.9,100,12.9,100,12.5,100,0.0,100,3.5,100,,-1,,-1,,-1,,-1,,-1,,-1,,-1,,-1,1026.4,100,19.4,100,285,100,23.8,100,5,100,0,1,0.3,1,1026.4,1,1026.4,100,1026.3,100,19.4,100,19.1,100,285,100,280,100,23.8,100,23.8,100
2023-10-25T01:30:00Z,44489,9302001,WEST CHEDABUCTO BAY,0,45.48687,-61.14100000000001,18,2023-10-25T01:30:00.000Z,110,2023-10-25T01:33:06.092Z,45.48702,100,-61.14086999999999,100,9.0,100,12.9,100,12.5,100,0.0,100,3.5,100,,-1,,-1,,-1,,-1,,-1,,-1,,-1,,-1,1026.3,100,20.2,100,288,100,24.5,100,5,100,0,1,0.2,1,1026.3,1,1026.3,100,1026.2,100,20.2,100,19.8,100,288,100,283,100,24.5,100,24.5,100
2023-10-25T01:40:00Z,44489,9302001,WEST CHEDABUCTO BAY,0,45.48687,-61.14100000000001,18,2023-10-25T01:40:00.000Z,110,2023-10-25T01:43:10.759Z,45.48703,100,-61.14085,100,9.1,100,12.9,100,12.5,100,0.0,100,3.5,100,,-1,,-1,,-1,,-1,,-1,,-1,,-1,,-1,1026.1,100,20.9,100,289,100,24.5,100,5,100,0,1,0.0,1,1026.1,1,1026.1,100,1026.1,100,20.9,100,20.5,100,289,100,284,100,24.5,100,23.8,100
2023-10-25T01:50:00Z,44489,9302001,WEST CHEDABUCTO BAY,0,45.48687,-61.14100000000001,18,2023-10-25T01:50:00.000Z,110,2023-10-25T01:53:11.865Z,45.48702,100,-61.14085,100,9.0,100,12.9,100,12.5,100,0.0,100,3.5,100,,-1,,-1,,-1,,-1,,-1,,-1,,-1,,-1,1026.1,100,21.2,100,288,100,25.6,100,5,100,8,1,-0.1,1,1026.1,1,1026.1,100,1026.0,100,21.2,100,20.9,100,288,100,283,100,25.6,100,24.8,100
2023-10-25T02:00:00Z,44489,9302001,WEST CHEDABUCTO BAY,0,45.48687,-61.14100000000001,18,2023-10-25T02:00:00.000Z,108,2023-10-25T02:03:09.658Z,45.48703,100,-61.14085,100,9.1,100,12.9,100,12.5,100,0.0,100,3.5,100,0.3,100,0.6,100,3.4,100,0.4,100,0.5,100,3.8,100,3.0,100,3.1,100,1026.0,100,21.6,100,287,100,27.0,100,5,100,8,1,-0.3,1,1026.0,1,1026.0,100,1026.0,100,21.6,100,21.2,100,287,100,282,100,27.0,100,26.3,100
2023-10-25T02:10:00Z,44489,9302001,WEST CHEDABUCTO BAY,0,45.48687,-61.14100000000001,18,2023-10-25T02:10:00.000Z,110,2023-10-25T02:16:23.165Z,45.48705,100,-61.14088,100,9.1,100,12.9,100,12.5,100,0.0,100,3.5,100,,-1,,-1,,-1,,-1,,-1,,-1,,-1,,-1,1026.0,100,23.4,100,285,100,27.0,100,5,100,8,1,-0.4,1,1026.0,1,1026.0,100,1026.0,100,23.4,100,22.7,100,285,100,280,100,27.0,100,26.3,100
2023-10-25T02:20:00Z,44489,9302001,WEST CHEDABUCTO BAY,0,45.48687,-61.14100000000001,18,2023-10-25T02:20:00.000Z,110,2023-10-25T02:23:23.793Z,45.48703,100,-61.14088,100,9.2,100,12.9,100,12.5,100,0.0,100,3.5,100,,-1,,-1,,-1,,-1,,-1,,-1,,-1,,-1,1026.0,100,22.3,100,284,100,27.4,100,5,100,8,1,-0.5,1,1026.0,1,1026.0,100,1026.0,100,22.3,100,22.0,100,284,100,280,100,27.4,100,27.7,100
2023-10-25T02:30:00Z,44489,9302001,WEST CHEDABUCTO BAY,0,45.48687,-61.14100000000001,18,2023-10-25T02:30:00.000Z,110,2023-10-25T02:33:20.177Z,45.48707,100,-61.14088,100,9.1,100,12.9,100,12.5,100,0.0,100,3.5,100,,-1,,-1,,-1,,-1,,-1,,-1,,-1,,-1,1026.0,100,22.7,100,284,100,26.6,100,5,100,8,1,-0.6,1,1026.0,1,1026.0,100,1026.0,100,22.7,100,22.0,100,284,100,279,100,26.6,100,26.6,100
2023-10-25T02:40:00Z,44489,9302001,WEST CHEDABUCTO BAY,0,45.48687,-61.14100000000001,18,2023-10-25T02:40:00.000Z,110,2023-10-25T02:43:22.118Z,45.487,100,-61.14088,100,9.1,100,12.9,100,12.5,100,0.0,100,3.5,100,,-1,,-1,,-1,,-1,,-1,,-1,,-1,,-1,1026.0,100,21.2,100,287,100,25.6,100,5,100,8,1,-0.6,1,1026.0,1,1026.0,100,1025.9,100,21.2,100,20.5,100,287,100,283,100,25.6,100,24.8,100
2023-10-25T02:50:00Z,44489,9302001,WEST CHEDABUCTO BAY,0,45.48687,-61.14100000000001,18,2023-10-25T02:50:00.000Z,110,2023-10-25T02:53:25.237Z,45.48702,100,-61.14086999999999,100,9.0,100,12.9,100,12.4,100,0.0,100,3.5,100,,-1,,-1,,-1,,-1,,-1,,-1,,-1,,-1,1025.9,100,21.2,100,287,100,25.6,100,5,100,8,1,-0.7,1,1025.9,1,1025.9,100,1025.9,100,21.2,100,20.9,100,287,100,282,100,25.6,100,24.8,100
2023-10-25T03:00:00Z,44489,9302001,WEST CHEDABUCTO BAY,0,45.48687,-61.14100000000001,18,2023-10-25T03:00:00.000Z,108,2023-10-25T03:03:23.034Z,45.48703,100,-61.14088,100,9.0,100,12.9,100,12.5,100,0.0,100,3.5,100,0.2,100,0.6,100,3.4,100,0.4,100,0.4,100,3.3,100,2.9,100,7.4,100,1025.9,100,20.5,100,285,100,23.8,100,5,100,6,1,-0.7,1,1025.9,1,1025.9,100,1025.9,100,20.5,100,20.2,100,285,100,280,100,23.8,100,23.8,100
2023-10-25T03:10:00Z,44489,9302001,WEST CHEDABUCTO BAY,0,45.48687,-61.14100000000001,18,2023-10-25T03:10:00.000Z,110,2023-10-25T03:16:36.499Z,45.48702,100,-61.14088,100,8.9,100,12.9,100,12.5,100,0.0,100,3.5,100,,-1,,-1,,-1,,-1,,-1,,-1,,-1,,-1,1025.8,100,19.8,100,288,100,23.0,100,5,100,7,1,-0.7,1,1025.8,1,1025.8,100,1025.8,100,19.8,100,19.4,100,288,100,283,100,23.0,100,22.7,100
2023-10-25T03:20:00Z,44489,9302001,WEST CHEDABUCTO BAY,0,45.48687,-61.14100000000001,18,2023-10-25T03:20:00.000Z,110,2023-10-25T03:23:37.870Z,45.48705,100,-61.1409,100,9.0,100,12.9,100,12.5,100,0.0,100,3.5,100,,-1,,-1,,-1,,-1,,-1,,-1,,-1,,-1,1025.9,100,18.7,100,288,100,21.6,100,5,100,8,1,-0.6,1,1025.9,1,1025.9,100,1025.8,100,18.7,100,18.4,100,288,100,283,100,21.6,100,21.6,100
2023-10-25T03:30:00Z,44489,9302001,WEST CHEDABUCTO BAY,0,45.48687,-61.14100000000001,18,2023-10-25T03:30:00.000Z,110,2023-10-25T03:32:35.934Z,45.48705,100,-61.1409,100,9.0,100,12.9,100,12.5,100,0.0,100,3.5,100,,-1,,-1,,-1,,-1,,-1,,-1,,-1,,-1,1025.8,100,17.3,100,291,100,20.2,100,5,100,7,1,-0.6,1,1025.8,1,1025.8,100,1025.8,100,17.3,100,16.9,100,291,100,286,100,20.2,100,20.2,100
2023-10-25T03:40:00Z,44489,9302001,WEST CHEDABUCTO BAY,0,45.48687,-61.14100000000001,18,2023-10-25T03:40:00.000Z,110,2023-10-25T03:42:41.372Z,45.48702,100,-61.14088,100,8.9,100,12.9,100,12.4,100,0.0,100,3.5,100,,-1,,-1,,-1,,-1,,-1,,-1,,-1,,-1,1026.0,100,18.0,100,295,100,21.2,100,5,100,6,1,-0.6,1,1026.0,1,1026.0,100,1025.9,100,18.0,100,17.6,100,295,100,290,100,21.2,100,21.6,100
2023-10-25T03:50:00Z,44489,9302001,WEST CHEDABUCTO BAY,0,45.48687,-61.14100000000001,18,2023-10-25T03:50:00.000Z,110,2023-10-25T03:52:38.582Z,45.48702,100,-61.14088,100,8.9,100,12.9,100,12.4,100,0.0,100,3.5,100,,-1,,-1,,-1,,-1,,-1,,-1,,-1,,-1,1026.2,100,19.1,100,296,100,23.4,100,5,100,5,1,-0.4,1,1026.2,1,1026.2,100,1026.1,100,19.1,100,19.1,100,296,100,291,100,23.4,100,23.0,100
2023-10-25T04:00:00Z,44489,9302001,WEST CHEDABUCTO BAY,0,45.48687,-61.14100000000001,18,2023-10-25T04:00:00.000Z,108,2023-10-25T04:02:42.387Z,45.48703,100,-61.14086999999999,100,8.9,100,12.9,100,12.5,100,0.0,100,3.5,100,0.2,100,0.4,100,3.4,100,0.3,100,0.3,100,4.2,100,2.9,100,7.1,100,1026.2,100,19.4,100,293,100,23.4,100,5,100,5,1,-0.3,1,1026.2,1,1026.2,100,1026.1,100,19.4,100,19.1,100,293,100,288,100,23.4,100,23.0,100
2023-10-25T04:10:00Z,44489,9302001,WEST CHEDABUCTO BAY,0,45.48687,-61.14100000000001,18,2023-10-25T04:10:00.000Z,110,2023-10-25T04:15:41.989Z,45.48702,100,-61.14088,100,8.9,100,12.9,100,12.5,100,0.0,100,3.5,100,,-1,,-1,,-1,,-1,,-1,,-1,,-1,,-1,1026.0,100,20.5,100,288,100,24.8,100,5,100,5,1,-0.4,1,1026.0,1,1026.0,100,1026.0,100,20.5,100,20.2,100,288,100,283,100,24.8,100,24.8,100
2023-10-25T04:20:00Z,44489,9302001,WEST CHEDABUCTO BAY,0,45.48687,-61.14100000000001,18,2023-10-25T04:20:00.000Z,110,2023-10-25T04:22:43.887Z,45.48702,100,-61.14088,100,8.9,100,12.8,100,12.5,100,0.0,100,3.5,100,,-1,,-1,,-1,,-1,,-1,,-1,,-1,,-1,1025.8,100,20.5,100,287,100,24.5,100,5,100,6,1,-0.6,1,1025.8,1,1025.8,100,1025.8,100,20.5,100,20.2,100,287,100,282,100,24.5,100,24.5,100
2023-10-25T04:30:00Z,44489,9302001,WEST CHEDABUCTO BAY,0,45.48687,-61.14100000000001,18,2023-10-25T04:30:00.000Z,110,2023-10-25T04:32:54.370Z,45.48702,100,-61.14088,100,9.1,100,12.8,100,12.5,100,0.0,100,3.5,100,,-1,,-1,,-1,,-1,,-1,,-1,,-1,,-1,1025.7,100,22.7,100,287,100,26.3,100,5,100,6,1,-0.6,1,1025.7,1,1025.7,100,1025.7,100,22.7,100,22.3,100,287,100,282,100,26.3,100,26.3,100
2023-10-25T04:40:00Z,44489,9302001,WEST CHEDABUCTO BAY,0,45.48687,-61.14100000000001,18,2023-10-25T04:40:00.000Z,110,2023-10-25T04:42:58.948Z,45.487,100,-61.14088,100,9.1,100,12.8,100,12.4,100,0.0,100,3.5,100,,-1,,-1,,-1,,-1,,-1,,-1,,-1,,-1,1025.7,100,22.3,100,288,100,27.0,100,5,100,8,1,-0.4,1,1025.7,1,1025.7,100,1025.7,100,22.3,100,21.6,100,288,100,283,100,27.0,100,26.6,100
2023-10-25T04:50:00Z,44489,9302001,WEST CHEDABUCTO BAY,0,45.48687,-61.14100000000001,18,2023-10-25T04:50:00.000Z,110,2023-10-25T04:52:58.829Z,45.486999999999995,100,-61.14088,100,8.9,100,12.8,100,12.4,100,0.0,100,3.5,100,,-1,,-1,,-1,,-1,,-1,,-1,,-1,,-1,1025.6,100,20.5,100,289,100,24.8,100,5,100,8,1,-0.5,1,1025.6,1,1025.6,100,1025.6,100,20.5,100,20.2,100,289,100,284,100,24.8,100,23.4,100
2023-10-25T05:00:00Z,44489,9302001,WEST CHEDABUCTO BAY,0,45.48687,-61.14100000000001,18,2023-10-25T05:00:00.000Z,108,2023-10-25T05:02:57.088Z,45.48702,100,-61.14085,100,8.8,100,12.8,100,12.4,100,0.0,100,3.5,100,0.2,100,0.5,100,3.2,100,0.3,100,0.4,100,3.5,100,2.7,100,2.4,100,1025.7,100,22.3,100,287,100,26.3,100,5,100,8,1,-0.4,1,1025.7,1,1025.7,100,1025.6,100,22.3,100,21.6,100,287,100,282,100,26.3,100,25.9,100
2023-10-25T05:10:00Z,44489,9302001,WEST CHEDABUCTO BAY,0,45.48687,-61.14100000000001,18,2023-10-25T05:10:00.000Z,110,2023-10-25T05:16:00.787Z,45.486999999999995,100,-61.14085,100,8.7,100,12.8,100,12.4,100,0.0,100,3.5,100,,-1,,-1,,-1,,-1,,-1,,-1,,-1,,-1,1025.8,100,22.7,100,286,100,25.9,100,5,100,8,1,-0.3,1,1025.8,1,1025.8,100,1025.7,100,22.7,100,22.3,100,286,100,281,100,25.9,100,24.8,100
2023-10-25T05:20:00Z,44489,9302001,WEST CHEDABUCTO BAY,0,45.48687,-61.14100000000001,18,2023-10-25T05:20:00.000Z,110,2023-10-25T05:22:59.517Z,45.487,100,-61.14083,100,8.8,100,12.8,100,12.4,100,0.0,100,3.5,100,,-1,,-1,,-1,,-1,,-1,,-1,,-1,,-1,1025.8,100,22.0,100,288,100,24.8,100,5,100,6,1,-0.2,1,1025.8,1,1025.8,100,1025.7,100,22.0,100,21.6,100,288,100,283,100,24.8,100,24.5,100
2023-10-25T05:30:00Z,44489,9302001,WEST CHEDABUCTO BAY,0,45.48687,-61.14100000000001,18,2023-10-25T05:30:00.000Z,110,2023-10-25T05:33:14.202Z,45.48702,100,-61.14085,100,9.0,100,12.8,100,12.5,100,0.0,100,3.5,100,,-1,,-1,,-1,,-1,,-1,,-1,,-1,,-1,1025.8,100,22.0,100,289,100,25.6,100,5,100,5,1,-0.3,1,1025.8,1,1025.8,100,1025.7,100,22.0,100,21.6,100,289,100,284,100,25.6,100,24.8,100
2023-10-25T05:40:00Z,44489,9302001,WEST CHEDABUCTO BAY,0,45.48687,-61.14100000000001,18,2023-10-25T05:40:00.000Z,110,2023-10-25T05:43:14.858Z,45.48702,100,-61.14083,100,8.9,100,12.8,100,12.4,100,0.0,100,3.5,100,,-1,,-1,,-1,,-1,,-1,,-1,,-1,,-1,1025.7,100,23.8,100,287,100,27.4,100,5,100,8,1,-0.3,1,1025.7,1,1025.7,100,1025.6,100,23.8,100,23.0,100,287,100,282,100,27.4,100,26.6,100
2023-10-25T05:50:00Z,44489,9302001,WEST CHEDABUCTO BAY,0,45.48687,-61.14100000000001,18,2023-10-25T05:50:00.000Z,110,2023-10-25T05:53:12.093Z,45.48702,100,-61.14082,100,9.0,100,12.8,100,12.4,100,0.0,100,3.5,100,,-1,,-1,,-1,,-1,,-1,,-1,,-1,,-1,1025.6,100,22.7,100,283,100,26.6,100,5,100,8,1,-0.3,1,1025.6,1,1025.6,100,1025.5,100,22.7,100,22.0,100,283,100,278,100,26.6,100,26.6,100
2023-10-25T06:00:00Z,44489,9302001,WEST CHEDABUCTO BAY,0,45.48687,-61.14100000000001,18,2023-10-25T06:00:00.000Z,108,2023-10-25T06:03:17.711Z,45.48702,100,-61.14088,100,8.8,100,12.8,100,12.4,100,0.0,100,3.5,100,0.2,100,0.4,100,3.2,100,0.3,100,0.3,100,3.7,100,2.7,100,8.0,100,1025.6,100,23.0,100,286,100,26.3,100,5,100,8,1,-0.3,1,1025.6,1,1025.6,100,1025.6,100,23.0,100,22.7,100,286,100,281,100,26.3,100,26.3,100
2023-10-25T06:10:00Z,44489,9302001,WEST CHEDABUCTO BAY,0,45.48687,-61.14100000000001,18,2023-10-25T06:10:00.000Z,110,2023-10-25T06:16:15.057Z,45.48705,100,-61.14088,100,9.0,100,12.8,100,12.4,100,0.0,100,3.5,100,,-1,,-1,,-1,,-1,,-1,,-1,,-1,,-1,1025.5,100,22.3,100,289,100,26.3,100,5,100,8,1,-0.4,1,1025.5,1,1025.5,100,1025.4,100,22.3,100,21.6,100,289,100,284,100,26.3,100,25.6,100
2023-10-25T06:20:00Z,44489,9302001,WEST CHEDABUCTO BAY,0,45.48687,-61.14100000000001,18,2023-10-25T06:20:00.000Z,110,2023-10-25T06:23:14.454Z,45.48703,100,-61.14088,100,9.0,100,12.8,100,12.4,100,0.0,100,3.5,100,,-1,,-1,,-1,,-1,,-1,,-1,,-1,,-1,1025.3,100,25.9,100,287,100,30.6,100,5,100,8,1,-0.5,1,1025.3,1,1025.3,100,1025.3,100,25.9,100,25.2,100,287,100,283,100,30.6,100,29.9,100
2023-10-25T06:30:00Z,44489,9302001,WEST CHEDABUCTO BAY,0,45.48687,-61.14100000000001,18,2023-10-25T06:30:00.000Z,110,2023-10-25T06:33:18.018Z,45.48703,100,-61.14088,100,8.9,100,12.8,100,12.4,100,0.0,100,3.5,100,,-1,,-1,,-1,,-1,,-1,,-1,,-1,,-1,1025.3,100,24.5,100,286,100,29.2,100,5,100,8,1,-0.6,1,1025.3,1,1025.3,100,1025.2,100,24.5,100,23.8,100,286,100,281,100,29.2,100,28.8,100
2023-10-25T06:40:00Z,44489,9302001,WEST CHEDABUCTO BAY,0,45.48687,-61.14100000000001,18,2023-10-25T06:40:00.000Z,110,2023-10-25T06:43:29.813Z,45.48702,100,-61.140919999999994,100,8.8,100,12.8,100,12.4,100,0.0,100,3.5,100,,-1,,-1,,-1,,-1,,-1,,-1,,-1,,-1,1025.3,100,22.3,100,290,100,26.6,100,5,100,8,1,-0.8,1,1025.3,1,1025.3,100,1025.2,100,22.3,100,21.6,100,290,100,286,100,26.6,100,26.6,100
2023-10-25T06:50:00Z,44489,9302001,WEST CHEDABUCTO BAY,0,45.48687,-61.14100000000001,18,2023-10-25T06:50:00.000Z,110,2023-10-25T06:53:29.644Z,45.48702,100,-61.1409,100,9.0,100,12.8,100,12.4,100,0.0,100,3.5,100,,-1,,-1,,-1,,-1,,-1,,-1,,-1,,-1,1025.3,100,19.8,100,285,100,24.1,100,5,100,6,1,-0.9,1,1025.3,1,1025.3,100,1025.2,100,19.8,100,19.4,100,285,100,280,100,24.1,100,23.4,100
2023-10-25T07:00:00Z,44489,9302001,WEST CHEDABUCTO BAY,0,45.48687,-61.14100000000001,18,2023-10-25T07:00:00.000Z,108,2023-10-25T07:03:33.788Z,45.48702,100,-61.1409,100,9.2,100,12.8,100,12.4,100,0.0,100,3.5,100,0.2,100,0.6,100,3.2,100,0.3,100,0.4,100,3.6,100,2.8,100,2.4,100,1025.1,100,20.2,100,284,100,24.5,100,5,100,8,1,-1.1,1,1025.1,1,1025.1,100,1025.0,100,20.2,100,19.8,100,284,100,279,100,24.5,100,23.8,100
2023-10-25T07:10:00Z,44489,9302001,WEST CHEDABUCTO BAY,0,45.48687,-61.14100000000001,18,2023-10-25T07:10:00.000Z,110,2023-10-25T07:16:32.512Z,45.48703,100,-61.14092,100,9.3,100,12.8,100,12.4,100,0.0,100,3.5,100,,-1,,-1,,-1,,-1,,-1,,-1,,-1,,-1,1025.0,100,20.5,100,290,100,26.3,100,5,100,8,1,-1.1,1,1025.0,1,1025.0,100,1024.9,100,20.5,100,20.2,100,290,100,285,100,26.3,100,25.6,100
2023-10-25T07:20:00Z,44489,9302001,WEST CHEDABUCTO BAY,0,45.48687,-61.14100000000001,18,2023-10-25T07:20:00.000Z,110,2023-10-25T07:23:30.229Z,45.48703,100,-61.1409,100,9.2,100,12.8,100,12.4,100,0.0,100,3.5,100,,-1,,-1,,-1,,-1,,-1,,-1,,-1,,-1,1025.0,100,23.4,100,294,100,27.7,100,5,100,8,1,-0.8,1,1025.0,1,1025.0,100,1024.9,100,23.4,100,23.0,100,294,100,289,100,27.7,100,27.4,100
2023-10-25T07:30:00Z,44489,9302001,WEST CHEDABUCTO BAY,0,45.48687,-61.14100000000001,18,2023-10-25T07:30:00.000Z,110,2023-10-25T07:32:39.202Z,45.48703,100,-61.14088,100,9.0,100,12.8,100,12.4,100,0.0,100,3.5,100,,-1,,-1,,-1,,-1,,-1,,-1,,-1,,-1,1024.8,100,25.9,100,282,100,31.7,100,5,100,8,1,-0.9,1,1024.8,1,1024.8,100,1024.8,100,25.9,100,25.2,100,282,100,278,100,31.7,100,31.0,100
2023-10-25T07:40:00Z,44489,9302001,WEST CHEDABUCTO BAY,0,45.48687,-61.14100000000001,18,2023-10-25T07:40:00.000Z,110,2023-10-25T07:42:37.230Z,45.48703,100,-61.14088,100,9.1,100,12.8,100,12.4,100,0.0,100,3.5,100,,-1,,-1,,-1,,-1,,-1,,-1,,-1,,-1,1024.7,100,25.6,100,282,100,28.8,100,5,100,8,1,-1.1,1,1024.7,1,1024.7,100,1024.6,100,25.6,100,25.2,100,282,100,277,100,28.8,100,28.4,100
2023-10-25T07:50:00Z,44489,9302001,WEST CHEDABUCTO BAY,0,45.48687,-61.14100000000001,18,2023-10-25T07:50:00.000Z,110,2023-10-25T07:52:45.363Z,45.48703,100,-61.1409,100,9.3,100,12.8,100,12.4,100,0.0,100,3.5,100,,-1,,-1,,-1,,-1,,-1,,-1,,-1,,-1,1024.5,100,26.6,100,281,100,32.0,100,5,100,8,1,-1.1,1,1024.5,1,1024.5,100,1024.5,100,26.6,100,25.9,100,281,100,276,100,32.0,100,31.3,100
2023-10-25T08:00:00Z,44489,9302001,WEST CHEDABUCTO BAY,0,45.48687,-61.14100000000001,18,2023-10-25T08:00:00.000Z,108,2023-10-25T08:02:44.861Z,45.48702,100,-61.14085,100,9.2,100,12.8,100,12.4,100,0.0,100,3.5,100,0.3,100,0.6,100,3.0,100,0.4,100,0.5,100,2.8,100,2.7,100,2.8,100,1024.6,100,24.5,100,286,100,28.4,100,5,100,8,1,-1.0,1,1024.6,1,1024.6,100,1024.6,100,24.5,100,24.1,100,286,100,281,100,28.4,100,28.4,100
2023-10-25T08:10:00Z,44489,9302001,WEST CHEDABUCTO BAY,0,45.48687,-61.14100000000001,18,2023-10-25T08:10:00.000Z,110,2023-10-25T08:15:50.919Z,45.48703,100,-61.1409,100,9.3,100,12.8,100,12.4,100,0.0,100,3.5,100,,-1,,-1,,-1,,-1,,-1,,-1,,-1,,-1,1024.6,100,23.8,100,286,100,27.4,100,5,100,8,1,-1.2,1,1024.6,1,1024.6,100,1024.5,100,23.8,100,23.0,100,286,100,281,100,27.4,100,26.3,100
2023-10-25T08:20:00Z,44489,9302001,WEST CHEDABUCTO BAY,0,45.48687,-61.14100000000001,18,2023-10-25T08:20:00.000Z,110,2023-10-25T08:22:54.009Z,45.48703,100,-61.14086999999999,100,9.4,100,12.8,100,12.4,100,0.0,100,3.5,100,,-1,,-1,,-1,,-1,,-1,,-1,,-1,,-1,1024.6,100,23.8,100,281,100,27.4,100,5,100,6,1,-1.2,1,1024.6,1,1024.6,100,1024.6,100,23.8,100,23.0,100,281,100,276,100,27.4,100,25.9,100
2023-10-25T08:30:00Z,44489,9302001,WEST CHEDABUCTO BAY,0,45.48687,-61.14100000000001,18,2023-10-25T08:30:00.000Z,110,2023-10-25T08:32:49.125Z,45.48707,100,-61.14085,100,9.6,100,12.8,100,12.4,100,0.0,100,3.5,100,,-1,,-1,,-1,,-1,,-1,,-1,,-1,,-1,1024.7,100,23.8,100,276,100,27.4,100,5,100,6,1,-1.1,1,1024.7,1,1024.7,100,1024.6,100,23.8,100,23.0,100,276,100,271,100,27.4,100,26.3,100
2023-10-25T08:40:00Z,44489,9302001,WEST CHEDABUCTO BAY,0,45.48687,-61.14100000000001,18,2023-10-25T08:40:00.000Z,110,2023-10-25T08:42:51.118Z,45.48703,100,-61.14086999999999,100,9.7,100,12.8,100,12.4,100,0.0,100,3.5,100,,-1,,-1,,-1,,-1,,-1,,-1,,-1,,-1,1024.9,100,21.6,100,277,100,26.3,100,5,100,5,1,-0.8,1,1024.9,1,1024.9,100,1024.8,100,21.6,100,20.5,100,277,100,272,100,26.3,100,25.2,100
2023-10-25T08:50:00Z,44489,9302001,WEST CHEDABUCTO BAY,0,45.48687,-61.14100000000001,18,2023-10-25T08:50:00.000Z,110,2023-10-25T08:53:01.340Z,45.48705,100,-61.1409,100,9.7,100,12.8,100,12.4,100,0.0,100,3.5,100,,-1,,-1,,-1,,-1,,-1,,-1,,-1,,-1,1024.8,100,22.3,100,277,100,27.4,100,5,100,5,1,-0.8,1,1024.8,1,1024.8,100,1024.7,100,22.3,100,21.6,100,277,100,272,100,27.4,100,26.3,100
2023-10-25T09:00:00Z,44489,9302001,WEST CHEDABUCTO BAY,0,45.48687,-61.14100000000001,18,2023-10-25T09:00:00.000Z,108,2023-10-25T09:03:08.174Z,45.48705,100,-61.14086999999999,100,9.8,100,12.8,100,12.4,100,0.0,100,3.5,100,0.3,100,0.7,100,3.3,100,0.4,100,0.5,100,3.3,100,3.0,100,2.9,100,1024.7,100,21.6,100,277,100,26.3,100,5,100,5,1,-0.9,1,1024.7,1,1024.7,100,1024.7,100,21.6,100,20.9,100,277,100,272,100,26.3,100,24.8,100
2023-10-25T09:10:00Z,44489,9302001,WEST CHEDABUCTO BAY,0,45.48687,-61.14100000000001,18,2023-10-25T09:10:00.000Z,110,2023-10-25T09:16:06.654Z,45.48703,100,-61.14088,100,9.8,100,12.8,100,12.4,100,0.0,100,3.5,100,,-1,,-1,,-1,,-1,,-1,,-1,,-1,,-1,1024.7,100,23.0,100,276,100,29.5,100,5,100,5,1,-0.8,1,1024.7,1,1024.7,100,1024.6,100,23.0,100,22.0,100,276,100,271,100,29.5,100,28.1,100
2023-10-25T09:20:00Z,44489,9302001,WEST CHEDABUCTO BAY,0,45.48687,-61.14100000000001,18,2023-10-25T09:20:00.000Z,110,2023-10-25T09:23:03.212Z,45.48705,100,-61.14085,100,9.9,100,12.8,100,12.4,100,0.0,100,3.5,100,,-1,,-1,,-1,,-1,,-1,,-1,,-1,,-1,1024.8,100,23.0,100,278,100,27.4,100,5,100,5,1,-0.5,1,1024.8,1,1024.8,100,1024.8,100,23.0,100,22.0,100,278,100,273,100,27.4,100,25.9,100